Location: Sungai Laei
(2.6000°N, 113.7167°E)
Time: 11:43:36
(UTC+00:00)

CZ-2C R/B - Pass Details

Date: 13 October 2022
Orbit: 703 x 908 km, 98.1° (Epoch: 08 December)

Event Time Altitude Azimuth Distance (km) Brightness Sun altitude
Rises 19:35:10 0° 41° (NE) 3,243 6.6 -39.0°
Reaches altitude 10° 19:38:17 10° 61° (ENE) 2,279 5.9 -38.2°
Maximum altitude 19:41:27 17° 101° (E) 1,814 5.5 -37.4°
Drops below altitude 10° 19:44:33 10° 141° (SE) 2,218 5.8 -36.7°
Sets 19:47:31 0° 161° (SSE) 3,116 6.5 -35.9°
